Location: ???????
(54.6339°N, 39.4245°E)
Time: 17:07:26
(UTC+00:00)

CZ-2C R/B - Pass Details

Date: 19 May 2025
Orbit: 702 x 902 km, 98.2° (Epoch: 20 June)

Event Time Altitude Azimuth Distance (km) Brightness Sun altitude
Rises 21:39:59 0° 19° (NNE) 3,521 8.0 -15.3°
Reaches altitude 10° 21:42:37 10° 28° (NNE) 2,587 6.8 -15.2°
Maximum altitude 21:47:55 36° 94° (E) 1,406 4.4 -15.1°
Enters shadow 21:52:02 16° 153° (SSE) 2,190 4.9 -15.1°
